Regional Weather Roundup
Issued by NWS

Home | Current Version | Previous Version | Text Only | Print | Product List | Glossary On
Versions: 1 2 3 4 5 6 7 8 9 10 11 12 13 14 15 16 17 18 19 20 21 22 23 24 25 26 27 28 29 30 31 32 33 34 35 36 37 38 39 40 41 42 43 44 45 46 47 48 49 50
679
ASUS42 KTBW 010617
RWRFL
FLORIDA REGIONAL WEATHER ROUNDUP
NATIONAL WEATHER SERVICE TAMPA BAY RUSKIN FL
200 AM EDT WED JUN 01 2016

NOTE: "FAIR" INDICATES FEW OR NO CLOUDS BELOW 12,000 FEET WITH NO
SIGNIFICANT WEATHER AND/OR OBSTRUCTIONS TO VISIBILITY.

FLZ001>010-012>015-112-114-115-010700-
PANHANDLE FLORIDA

CITY           SKY/WX    TMP DP  RH WIND       PRES   REMARKS
PENSACOLA      CLEAR     74  68  81 CALM      29.94F
MILTON NAS     CLEAR     68  68 100 CALM      29.96  FOG
CRESTVIEW      CLEAR     68  66  93 CALM      29.97F FOG
DUKE FIELD     FAIR      70  68  95 S2        29.95F
VALPARAISO     PTCLDY    72  68  87 N2        29.94F
MARY ESTHER    CLEAR     74  69  85 W2        29.94F
PANAMA CITY    FAIR      72  71  97 CALM      29.94F
TYNDALL AFB    PTCLDY    78  74  86 SW6       29.95F
APALACHICOLA   CLEAR     74  73  97 W3        29.96F

STATION/POSITION SKY/WX   TEMP    WIND        PRES    WAVE   SWELL
                          AIR SEA DIR/SP/G            HT/PER HT/PER
                          (F)     (DEG/KT/KT) (MB)    (FT/S) (FT/S)
30.1N   87.6W              81 83              1013.4F   1
29.2N   88.2W              80 81  210/  6/  8 1014.0F
28.8N   86.0W              80 82  240/  4/  6 1015.3S   1
PANAMA CITY BEAC           80 81  260/  8/ 10 1015.1S
TOWER C                    78     280/  8/  8 1015.2F
28.5N   84.5W              80 81  280/  4/  6 1014.5F   1

$$
FLZ011-016>038-118-127-128-134-139-239-010700-
NORTH FLORIDA

CITY           SKY/WX    TMP DP  RH WIND       PRES   REMARKS
MARIANNA       CLEAR     74  69  85 CALM      29.95S
TALLAHASSEE    CLEAR     71  68  90 CALM      29.96S
PERRY          PTCLDY    74  72  94 CALM      29.97F
LIVE OAK         N/A     70  70 100 CALM      29.98F
CROSS CITY       N/A     71  68  90 CALM      29.96S
LAKE CITY      FAIR      72  66  83 W5        29.96F
GAINESVILLE    PTCLDY    70  66  87 CALM      29.96S
WILLISTON      FAIR      73  72  94 CALM      29.97S
PALATKA        FAIR      68  68 100 CALM      29.96S
MAYPORT NAS    PTCLDY    75  69  81 SW5       29.95S
JACKSONVILLE   CLOUDY    71  68  90 CALM      29.94S
JAX NAS        PTCLDY    75  69  81 W7        29.96S
JAX CECIL        N/A     66  64  94 CALM      29.96S
FERNANDINA BEA FAIR      77  72  83 CALM      29.94R
ST AUGUSTINE   CLOUDY    76  68  76 CALM      29.96S
PALM COAST     FAIR      72  70  93 CALM      29.96S

STATION/POSITION SKY/WX   TEMP    WIND        PRES    WAVE   SWELL
                          AIR SEA DIR/SP/G            HT/PER HT/PER
                          (F)     (DEG/KT/KT) (MB)    (FT/S) (FT/S)
SHELL POINT                77     290/  6/  9 1013.5
KEATON BEACH               80     280/  9/ 10 1014.3F
CEDAR KEY                  79     280/  3/  4 1015.1S
FERNANDINA                 78 82  100/  2/  3 1013.8F
30.7N   81.3W                 80                N/A     2/ 8
MAYPORT                    77 80   CALM  /  2 1014.3R
31.4N   80.9W              77 77  170/  6/  6 1013.9F   2/ 8   2/ 8
ST AUGUSTINE               76 80  180/  4/  5 1015.1S

$$
FLZ040-043>046-052-053-057-058-063-144-010700-
INTERIOR CENTRAL FLORIDA

CITY           SKY/WX    TMP DP  RH WIND       PRES   REMARKS
OCALA          CLEAR     70  66  88 CALM      29.97S
THE VILLAGES     N/A     73  70  88 CALM      29.87F
LEESBURG       CLEAR     75  68  78 SW5       29.98R
SANFORD        CLEAR     75  69  81 SW5       29.96S
ORLANDO EXEC   CLEAR     75  72  90 S5        29.97S
ORLANDO INTL   MOCLDY    73  71  93 CALM      29.98R
WINTER HAVEN   CLOUDY    75  71  87 CALM      29.98S
LAKELAND       CLOUDY    72  68  88 CALM      29.98S
BARTOW         FAIR      72  72 100 CALM      29.98S
OKEECHOBEE     CLEAR     70  70 100 CALM      29.97F FOG

$$
FLZ041-047-054-059-064-141-147-010700-
EAST CENTRAL FLORIDA

CITY           SKY/WX    TMP DP  RH WIND       PRES   REMARKS
DAYTONA BEACH  MOCLDY    73  69  87 SW5       29.97R
DELAND           N/A     73  68  83 CALM      29.98S
JFK SPACE CTR  PTCLDY    76  70  80 S6        29.95F
CAPE CANAVERAL PTCLDY    77  70  78 W3        29.95S
PATRICK AFB    PTCLDY    78  71  80 W3        29.96S
MELBOURNE      PTCLDY    74  70  87 CALM      29.97S
VERO BEACH     CLEAR     74  70  87 CALM      29.97F
FT PIERCE      CLEAR     72  70  93 CALM      29.97S
STUART         CLEAR     77  72  83 W3        29.97F

STATION/POSITION SKY/WX   TEMP    WIND        PRES    WAVE   SWELL
                          AIR SEA DIR/SP/G            HT/PER HT/PER
                          (F)     (DEG/KT/KT) (MB)    (FT/S) (FT/S)
28.5N   80.2W              80 80  210/ 12/ 12 1014.7F
28.9N   78.5W              80 80  180/ 12/ 14 1014.8F
TRIDENT PIER               79 83  210/  5/  6 1014.7F
28.4N   80.5W                 82                N/A     2/ 8
27.5N   80.2W                 82                N/A     2/ 8

$$
FLZ050-056-061-142-242-148-248-149-249-151-251-155-255-
160-260-010700-
WEST CENTRAL FLORIDA

CITY           SKY/WX    TMP DP  RH WIND       PRES   REMARKS
CRYSTAL RIVER  FAIR      72  68  88 CALM      29.98R
INVERNESS      FAIR      72  70  94 CALM      29.98S
BROOKSVILLE    CLEAR     71  68  90 CALM      29.99S
ZEPHYRHILLS    CLOUDY    65  62  89 SE3       29.98S
CLEARWATER AIR FAIR      75  68  78 CALM      29.96F
ST PETE CLEARW PTCLDY    76  68  76 CALM      29.97S
TAMPA INTL     MOCLDY    77  70  79 N5        29.97F
TAMPA EXEC     PTCLDY    72  68  88 CALM      29.98S
PLANT CITY     CLEAR     73  70  88 CALM      29.99S
MACDILL AFB    PTCLDY    73  70  89 N1        29.96F
PETER O KNIGHT PTCLDY    79  72  78 CALM      29.97S
ST PETERSBURG  PTCLDY    79  70  74 N3        29.95S
SARASOTA       NOT AVBL
VENICE         NOT AVBL

STATION/POSITION SKY/WX   TEMP    WIND        PRES    WAVE   SWELL
                          AIR SEA DIR/SP/G            HT/PER HT/PER
                          (F)     (DEG/KT/KT) (MB)    (FT/S) (FT/S)
27.3N   84.2W                 83                N/A     0
CLEARWATER BEACH           80 83  140/  4/  5 1015.0F
MIDDLE TAMPA BAY NOT AVBL
VENICE                     76 81   80/  3/  4 1014.2F

$$
FLZ066-069-070-075>078-162-262-165-265-010700-
SOUTHWEST FLORIDA AND KEYS

CITY           SKY/WX    TMP DP  RH WIND       PRES   REMARKS
PUNTA GORDA    CLEAR     73  71  93 E3        29.97F
FT MYERS       CLEAR     74  68  81 CALM      29.95F
SOUTHWEST INTL CLEAR     73  68  84 SE3       29.96F
NAPLES         CLEAR     75  70  84 E5        29.95F
MARCO ISLAND   CLEAR     73  66  78 NE3       29.96S
MARATHON       CLEAR     82  71  69 E6        29.94F
KEY WEST NAS   MOCLDY    81  73  76 E13       29.94F
KEY WEST INTL  CLEAR     81  74  79 E8        29.95S

STATION/POSITION SKY/WX   TEMP    WIND        PRES    WAVE   SWELL
                          AIR SEA DIR/SP/G            HT/PER HT/PER
                          (F)     (DEG/KT/KT) (MB)    (FT/S) (FT/S)
NAPLES                        85              1014.5F
26.0N   85.6W              80 82  100/  6/ 10 1015.0F   1
DRY TORTUGAS               81     120/  7/  7 1014.2F
SAND KEY                   81     120/ 11/ 13 1014.4F
LONG KEY                   82 87  120/  9/ 11 1014.2F

$$
FLZ067-068-071>074-168-172>174-010700-
SOUTHEAST FLORIDA

CITY           SKY/WX    TMP DP  RH WIND       PRES   REMARKS
W PALM BEACH   PTCLDY    77  69  76 W3        29.96F
FT LAUDER-EXEC CLEAR     77  70  79 CALM      29.94F
FT LAUDERDALE  PTCLDY    78  70  76 CALM      29.94F
POMPANO BEACH  CLEAR     79  70  74 SE6       29.94F
PEMBROKE PINES CLEAR     74  69  85 N3        29.96F
OPA LOCKA      CLEAR     75  68  78 CALM      29.95F
MIAMI          MOCLDY    77  72  84 E3        29.95F
WEST KENDALL   CLEAR     73  71  93 CALM      29.94F
HOMESTEAD      CLEAR     78  72  82 E5        29.94F

STATION/POSITION SKY/WX   TEMP    WIND        PRES    WAVE   SWELL
                          AIR SEA DIR/SP/G            HT/PER HT/PER
                          (F)     (DEG/KT/KT) (MB)    (FT/S) (FT/S)
PORT EVERGLADES            81     130/  6/  8 1014.4F
VIRGINIA KEY               81 84  130/ 10/ 12 1014.5F
LAKE WORTH                 81 83  130/  7/  9 1014.5F
FOWEY ROCKS                81 82  120/  9/ 10 1014.4F
SETTLEMENT POINT           79     140/  5/  6 1015.3S

$$





USA.gov is the U.S. government's official web portal to all federal, state and local government web resources and services.